Satellite-Ground Cal/Val Site Overpasses Predictions

Prediction of Satellite NPP Overpassing Cal/Val Site: Antarctic Dome C

Ground Cal/Val Site Location: Latitude: -75.10, Longitude: 123.35; Satellite-Ground Site NADIR distance within 100 km.

Table of predicted overpasses for the next 14.0 days since TLE Epoch: 11/20/2020
Interval Starting Time Ending Time Minimum Distance Time Minimum Distance (km)
1 11/21/2020 14:54:38 11/21/2020 14:55:07 11/21/2020 14:54:53 19.19
2 11/22/2020 14:35:56 11/22/2020 14:36:09 11/22/2020 14:36:02 87.93
3 11/23/2020 07:37:27 11/23/2020 07:37:54 11/23/2020 07:37:41 36.36
4 11/24/2020 07:18:40 11/24/2020 07:19:00 11/24/2020 07:18:50 73.75
5 11/26/2020 15:00:53 11/26/2020 15:01:17 11/26/2020 15:01:05 55.92
6 11/27/2020 14:42:03 11/27/2020 14:42:28 11/27/2020 14:42:15 53.21
7 11/28/2020 07:43:44 11/28/2020 07:44:04 11/28/2020 07:43:54 71.44
8 11/29/2020 07:24:50 11/29/2020 07:25:17 11/29/2020 07:25:03 36.60
9 12/01/2020 15:07:14 12/01/2020 15:07:23 12/01/2020 15:07:19 93.52
10 12/02/2020 14:48:14 12/02/2020 14:48:43 12/02/2020 14:48:28 17.80
